Time,TemperatureF,DewpointF,PressureIn,WindDirection,WindDirectionDegrees,WindSpeedMPH,WindSpeedGustMPH,Humidity,HourlyPrecipIn,Conditions,Clouds,dailyrainin,SoftwareType,DateUTC
2013-05-21 00:01:00,74.5,66.4,29.73,South,175,11.0,12.0,76,0.00,,SKC,0.00,VWS V14.01,2013-05-21 05:01:00,
2013-05-21 00:06:00,74.3,66.2,29.73,SSE,159,5.0,6.0,76,0.00,,SKC,0.00,VWS V14.01,2013-05-21 05:06:00,
2013-05-21 00:11:00,74.1,66.1,29.73,SSE,167,4.0,6.0,76,0.00,,SKC,0.00,VWS V14.01,2013-05-21 05:11:00,
2013-05-21 00:16:00,74.0,66.0,29.73,SSE,149,7.0,12.0,76,0.00,,SKC,0.00,VWS V14.01,2013-05-21 05:16:00,
2013-05-21 00:21:00,73.8,66.2,29.73,SE,137,6.0,12.0,77,0.00,,SKC,0.00,VWS V14.01,2013-05-21 05:21:00,
2013-05-21 00:26:00,73.5,65.9,29.73,SE,145,7.0,12.0,77,0.00,,SKC,0.00,VWS V14.01,2013-05-21 05:26:00,
2013-05-21 00:31:00,73.4,65.8,29.73,SSE,162,5.0,10.0,77,0.00,,SKC,0.00,VWS V14.01,2013-05-21 05:31:00,
2013-05-21 00:36:00,73.3,65.7,29.73,SSE,155,3.0,10.0,77,0.00,,SKC,0.00,VWS V14.01,2013-05-21 05:36:00,
2013-05-21 00:41:00,73.1,65.8,29.73,SE,140,6.0,15.0,78,0.00,,SKC,0.00,VWS V14.01,2013-05-21 05:41:00,
2013-05-21 00:46:00,72.9,65.7,29.72,SE,130,12.0,13.0,78,0.00,,SKC,0.00,VWS V14.01,2013-05-21 05:46:00,
2013-05-21 00:51:00,72.7,65.8,29.72,SSE,156,10.0,11.0,79,0.00,,SKC,0.00,VWS V14.01,2013-05-21 05:51:00,
2013-05-21 00:56:00,72.5,65.6,29.72,SSE,151,13.0,13.0,79,0.00,,SKC,0.00,VWS V14.01,2013-05-21 05:56:00,
2013-05-21 01:01:00,72.3,65.8,29.72,South,174,6.0,9.0,80,0.00,,SKC,0.00,VWS V14.01,2013-05-21 06:01:00,
2013-05-21 01:06:00,72.0,65.5,29.71,SSE,162,15.0,15.0,80,0.00,,SKC,0.00,VWS V14.01,2013-05-21 06:06:00,
2013-05-21 01:11:00,71.9,65.4,29.71,SE,128,12.0,12.0,80,0.00,,SKC,0.00,VWS V14.01,2013-05-21 06:11:00,
2013-05-21 01:16:00,71.7,65.6,29.71,SSE,163,6.0,11.0,81,0.00,,SKC,0.00,VWS V14.01,2013-05-21 06:16:00,
2013-05-21 01:21:00,71.6,65.5,29.71,South,180,6.0,12.0,81,0.00,,SKC,0.00,VWS V14.01,2013-05-21 06:21:00,
2013-05-21 01:26:00,71.4,65.3,29.71,East,94,5.0,9.0,81,0.00,,SKC,0.00,VWS V14.01,2013-05-21 06:26:00,
2013-05-21 01:31:00,71.3,65.2,29.70,SE,130,4.0,12.0,81,0.00,,SKC,0.00,VWS V14.01,2013-05-21 06:31:00,
2013-05-21 01:36:00,71.2,65.4,29.71,SSE,164,9.0,16.0,82,0.00,,SKC,0.00,VWS V14.01,2013-05-21 06:36:00,
2013-05-21 01:41:00,71.0,65.2,29.70,SE,144,7.0,11.0,82,0.00,,SKC,0.00,VWS V14.01,2013-05-21 06:41:00,
2013-05-21 01:46:00,70.8,65.4,29.69,SE,131,6.0,12.0,83,0.00,,SKC,0.00,VWS V14.01,2013-05-21 06:46:00,
2013-05-21 01:51:00,70.6,65.2,29.69,SSE,159,7.0,10.0,83,0.00,,SKC,0.00,VWS V14.01,2013-05-21 06:51:00,
2013-05-21 01:56:00,70.5,65.1,29.69,SSE,159,9.0,12.0,83,0.00,,SKC,0.00,VWS V14.01,2013-05-21 06:56:00,
2013-05-21 02:01:00,70.4,65.3,29.69,SSE,159,9.0,13.0,84,0.00,,SKC,0.00,VWS V14.01,2013-05-21 07:01:00,
2013-05-21 02:06:00,70.3,65.2,29.69,SSE,160,3.0,3.0,84,0.00,,SKC,0.00,VWS V14.01,2013-05-21 07:06:00,
2013-05-21 02:11:00,70.2,65.1,29.69,SSE,156,4.0,10.0,84,0.00,,SKC,0.00,VWS V14.01,2013-05-21 07:11:00,
2013-05-21 02:16:00,70.1,65.4,29.69,SE,146,4.0,10.0,85,0.00,,SKC,0.00,VWS V14.01,2013-05-21 07:16:00,
2013-05-21 02:21:00,69.9,65.2,29.69,SSE,150,8.0,9.0,85,0.00,,SKC,0.00,VWS V14.01,2013-05-21 07:21:00,
2013-05-21 02:26:00,69.9,65.2,29.68,South,175,8.0,10.0,85,0.00,,SKC,0.00,VWS V14.01,2013-05-21 07:26:00,
2013-05-21 02:31:00,69.7,65.0,29.68,SSE,160,6.0,6.0,85,0.00,,SKC,0.00,VWS V14.01,2013-05-21 07:31:00,
2013-05-21 02:36:00,69.6,65.2,29.68,South,172,4.0,4.0,86,0.00,,SKC,0.00,VWS V14.01,2013-05-21 07:36:00,
2013-05-21 02:41:00,69.5,65.1,29.68,SE,138,7.0,10.0,86,0.00,,SKC,0.00,VWS V14.01,2013-05-21 07:41:00,
2013-05-21 02:46:00,69.5,65.1,29.67,SSE,167,9.0,12.0,86,0.00,,SKC,0.00,VWS V14.01,2013-05-21 07:46:00,
2013-05-21 02:51:00,69.5,65.1,29.67,SSE,164,6.0,6.0,86,0.00,,SKC,0.00,VWS V14.01,2013-05-21 07:51:00,
2013-05-21 02:56:00,69.5,65.1,29.67,South,177,10.0,10.0,86,0.00,,SKC,0.00,VWS V14.01,2013-05-21 07:56:00,
2013-05-21 03:01:00,69.4,65.0,29.66,SSW,196,7.0,12.0,86,0.00,,SKC,0.00,VWS V14.01,2013-05-21 08:01:00,
2013-05-21 03:06:00,69.4,65.0,29.66,SSE,165,9.0,11.0,86,0.00,,SKC,0.00,VWS V14.01,2013-05-21 08:06:00,
2013-05-21 03:11:00,69.4,65.0,29.66,SE,141,12.0,12.0,86,0.00,,SKC,0.00,VWS V14.01,2013-05-21 08:11:00,
2013-05-21 03:16:00,69.3,65.3,29.66,SE,132,6.0,7.0,87,0.00,,SKC,0.00,VWS V14.01,2013-05-21 08:16:00,
2013-05-21 03:21:00,69.2,65.2,29.66,South,179,10.0,12.0,87,0.00,,SKC,0.00,VWS V14.01,2013-05-21 08:21:00,
2013-05-21 03:26:00,69.2,65.2,29.66,SE,132,7.0,7.0,87,0.00,,SKC,0.00,VWS V14.01,2013-05-21 08:26:00,
2013-05-21 03:31:00,69.1,65.1,29.65,SSE,158,5.0,9.0,87,0.00,,SKC,0.00,VWS V14.01,2013-05-21 08:31:00,
2013-05-21 03:36:00,69.1,65.1,29.65,SSE,158,7.0,7.0,87,0.00,,SKC,0.00,VWS V14.01,2013-05-21 08:36:00,
2013-05-21 03:41:00,69.0,65.0,29.65,SSE,148,9.0,13.0,87,0.00,,SKC,0.00,VWS V14.01,2013-05-21 08:41:00,
2013-05-21 03:46:00,68.9,65.2,29.65,SSE,164,12.0,15.0,88,0.00,,SKC,0.00,VWS V14.01,2013-05-21 08:46:00,
2013-05-21 03:51:00,68.9,65.2,29.65,SE,136,5.0,5.0,88,0.00,,SKC,0.00,VWS V14.01,2013-05-21 08:51:00,
2013-05-21 03:56:00,68.8,65.1,29.65,SSE,150,9.0,11.0,88,0.00,,SKC,0.00,VWS V14.01,2013-05-21 08:56:00,
2013-05-21 04:01:00,68.7,65.0,29.65,South,182,4.0,11.0,88,0.00,,SKC,0.00,VWS V14.01,2013-05-21 09:01:00,
2013-05-21 04:06:00,68.7,65.0,29.65,South,169,6.0,11.0,88,0.00,,SKC,0.00,VWS V14.01,2013-05-21 09:06:00,
2013-05-21 04:11:00,68.6,64.9,29.65,South,184,8.0,12.0,88,0.00,,SKC,0.00,VWS V14.01,2013-05-21 09:11:00,
2013-05-21 04:16:00,68.6,64.9,29.65,SSE,165,6.0,7.0,88,0.00,,SKC,0.00,VWS V14.01,2013-05-21 09:16:00,
2013-05-21 04:21:00,68.5,64.8,29.65,SSE,164,7.0,7.0,88,0.00,,SKC,0.00,VWS V14.01,2013-05-21 09:21:00,
2013-05-21 04:26:00,68.5,64.8,29.65,South,186,5.0,10.0,88,0.00,,SKC,0.00,VWS V14.01,2013-05-21 09:26:00,
2013-05-21 04:31:00,68.5,64.8,29.65,SSE,167,12.0,12.0,88,0.00,,SKC,0.00,VWS V14.01,2013-05-21 09:31:00,
2013-05-21 04:36:00,68.4,64.7,29.65,East,100,5.0,7.0,88,0.00,,SKC,0.00,VWS V14.01,2013-05-21 09:36:00,
2013-05-21 04:41:00,68.5,64.8,29.65,SSE,165,5.0,14.0,88,0.00,,SKC,0.00,VWS V14.01,2013-05-21 09:41:00,
2013-05-21 04:46:00,68.5,64.8,29.65,South,190,10.0,11.0,88,0.00,,SKC,0.00,VWS V14.01,2013-05-21 09:46:00,
2013-05-21 04:51:00,68.5,64.8,29.65,South,171,9.0,14.0,88,0.00,,SKC,0.00,VWS V14.01,2013-05-21 09:51:00,
2013-05-21 04:56:00,68.5,64.8,29.65,SSE,165,6.0,11.0,88,0.00,,SKC,0.00,VWS V14.01,2013-05-21 09:56:00,
2013-05-21 05:01:00,68.5,64.8,29.65,SSE,165,11.0,13.0,88,0.00,,SKC,0.00,VWS V14.01,2013-05-21 10:01:00,
2013-05-21 05:06:00,68.5,64.8,29.65,SSE,150,7.0,12.0,88,0.00,,SKC,0.00,VWS V14.01,2013-05-21 10:06:00,
2013-05-21 05:11:00,68.5,64.8,29.65,SSE,163,12.0,14.0,88,0.00,,SKC,0.00,VWS V14.01,2013-05-21 10:11:00,
2013-05-21 05:16:00,68.6,64.9,29.65,SSE,160,10.0,12.0,88,0.00,,SKC,0.00,VWS V14.01,2013-05-21 10:16:00,
2013-05-21 05:21:00,68.5,64.8,29.65,South,169,6.0,14.0,88,0.00,,SKC,0.00,VWS V14.01,2013-05-21 10:21:00,
2013-05-21 05:26:00,68.5,64.8,29.65,South,178,7.0,9.0,88,0.00,,SKC,0.00,VWS V14.01,2013-05-21 10:26:00,
2013-05-21 05:31:00,68.5,64.8,29.65,SSE,156,7.0,15.0,88,0.00,,SKC,0.00,VWS V14.01,2013-05-21 10:31:00,
2013-05-21 05:36:00,68.5,64.8,29.65,SSE,167,10.0,14.0,88,0.00,,SKC,0.00,VWS V14.01,2013-05-21 10:36:00,
2013-05-21 05:41:00,68.5,64.8,29.65,SSE,167,10.0,12.0,88,0.00,,SKC,0.00,VWS V14.01,2013-05-21 10:41:00,
2013-05-21 05:46:00,68.5,64.8,29.65,South,174,8.0,11.0,88,0.00,,SKC,0.00,VWS V14.01,2013-05-21 10:46:00,
2013-05-21 05:51:00,68.5,64.8,29.65,SSE,160,11.0,11.0,88,0.00,,SKC,0.00,VWS V14.01,2013-05-21 10:51:00,
2013-05-21 05:56:00,68.5,65.1,29.65,South,173,7.0,10.0,89,0.00,,SKC,0.00,VWS V14.01,2013-05-21 10:56:00,
2013-05-21 06:01:00,68.5,65.1,29.65,South,170,7.0,11.0,89,0.00,,SKC,0.00,VWS V14.01,2013-05-21 11:01:00,
2013-05-21 06:06:00,68.5,65.1,29.65,SSE,163,7.0,12.0,89,0.00,,SKC,0.00,VWS V14.01,2013-05-21 11:06:00,
2013-05-21 06:11:00,68.4,65.0,29.65,SSE,157,6.0,13.0,89,0.00,,SKC,0.00,VWS V14.01,2013-05-21 11:11:00,
2013-05-21 06:16:00,68.4,65.0,29.65,South,169,4.0,9.0,89,0.00,,SKC,0.00,VWS V14.01,2013-05-21 11:16:00,
2013-05-21 06:21:00,68.4,65.0,29.66,SSW,196,12.0,13.0,89,0.00,,SKC,0.00,VWS V14.01,2013-05-21 11:21:00,
2013-05-21 06:26:00,68.5,65.1,29.66,SSE,160,5.0,12.0,89,0.00,,SKC,0.00,VWS V14.01,2013-05-21 11:26:00,
2013-05-21 06:31:00,68.6,65.2,29.66,SSE,164,7.0,17.0,89,0.00,,SKC,0.00,VWS V14.01,2013-05-21 11:31:00,
2013-05-21 06:36:00,68.7,65.3,29.66,SSE,161,15.0,17.0,89,0.00,,SKC,0.00,VWS V14.01,2013-05-21 11:36:00,
2013-05-21 06:41:00,68.8,65.1,29.66,South,172,8.0,14.0,88,0.00,,SKC,0.00,VWS V14.01,2013-05-21 11:41:00,
2013-05-21 06:46:00,68.9,65.2,29.66,SSW,192,13.0,14.0,88,0.00,,SKC,0.00,VWS V14.01,2013-05-21 11:46:00,
2013-05-21 06:51:00,69.0,65.3,29.67,SSE,163,9.0,11.0,88,0.00,,SKC,0.00,VWS V14.01,2013-05-21 11:51:00,
2013-05-21 06:56:00,69.1,65.4,29.67,South,175,7.0,13.0,88,0.00,,SKC,0.00,VWS V14.01,2013-05-21 11:56:00,
2013-05-21 07:01:00,69.2,65.5,29.67,South,169,15.0,16.0,88,0.00,,SKC,0.00,VWS V14.01,2013-05-21 12:01:00,
2013-05-21 07:06:00,69.3,65.6,29.67,SSE,161,9.0,16.0,88,0.00,,SKC,0.00,VWS V14.01,2013-05-21 12:06:00,
2013-05-21 07:11:00,69.4,65.4,29.67,SW,221,14.0,17.0,87,0.00,,SKC,0.00,VWS V14.01,2013-05-21 12:11:00,
2013-05-21 07:16:00,69.5,65.5,29.68,South,188,10.0,19.0,87,0.00,,SKC,0.00,VWS V14.01,2013-05-21 12:16:00,
2013-05-21 07:21:00,69.7,65.7,29.68,SSE,166,10.0,16.0,87,0.00,,SKC,0.00,VWS V14.01,2013-05-21 12:21:00,
2013-05-21 07:26:00,69.7,65.7,29.68,South,191,17.0,25.0,87,0.00,,SKC,0.00,VWS V14.01,2013-05-21 12:26:00,
2013-05-21 07:31:00,69.9,65.9,29.68,South,175,6.0,20.0,87,0.00,,SKC,0.00,VWS V14.01,2013-05-21 12:31:00,
2013-05-21 07:36:00,70.0,66.0,29.68,South,175,10.0,20.0,87,0.00,,SKC,0.00,VWS V14.01,2013-05-21 12:36:00,
2013-05-21 07:41:00,70.1,66.1,29.69,SSE,167,7.0,18.0,87,0.00,,SKC,0.00,VWS V14.01,2013-05-21 12:41:00,
2013-05-21 07:46:00,70.2,66.2,29.69,South,182,7.0,19.0,87,0.00,,SKC,0.00,VWS V14.01,2013-05-21 12:46:00,
2013-05-21 07:51:00,70.3,66.2,29.69,South,180,9.0,16.0,87,0.00,,SKC,0.00,VWS V14.01,2013-05-21 12:51:00,
2013-05-21 07:56:00,70.4,66.0,29.69,South,175,13.0,22.0,86,0.00,,SKC,0.00,VWS V14.01,2013-05-21 12:56:00,
2013-05-21 08:01:00,70.5,66.1,29.69,SSE,155,9.0,12.0,86,0.00,,SKC,0.00,VWS V14.01,2013-05-21 13:01:00,
2013-05-21 08:06:00,70.6,66.2,29.69,South,190,15.0,16.0,86,0.00,,SKC,0.00,VWS V14.01,2013-05-21 13:06:00,
2013-05-21 08:11:00,70.7,66.3,29.69,SSE,160,6.0,17.0,86,0.00,,SKC,0.00,VWS V14.01,2013-05-21 13:11:00,
2013-05-21 08:16:00,70.8,66.4,29.69,SSE,168,11.0,12.0,86,0.00,,SKC,0.00,VWS V14.01,2013-05-21 13:16:00,
2013-05-21 08:21:00,70.9,66.5,29.69,SSE,160,15.0,20.0,86,0.00,,SKC,0.00,VWS V14.01,2013-05-21 13:21:00,
2013-05-21 08:26:00,71.0,66.3,29.69,South,182,12.0,17.0,85,0.00,,SKC,0.00,VWS V14.01,2013-05-21 13:26:00,
2013-05-21 08:31:00,71.1,66.4,29.69,South,174,9.0,17.0,85,0.00,,SKC,0.00,VWS V14.01,2013-05-21 13:31:00,
2013-05-21 08:36:00,71.2,66.5,29.69,SSE,163,11.0,17.0,85,0.00,,SKC,0.00,VWS V14.01,2013-05-21 13:36:00,
2013-05-21 08:41:00,71.3,66.6,29.69,SSE,165,14.0,17.0,85,0.00,,SKC,0.00,VWS V14.01,2013-05-21 13:41:00,
2013-05-21 08:46:00,71.4,66.7,29.69,South,178,7.0,21.0,85,0.00,,SKC,0.00,VWS V14.01,2013-05-21 13:46:00,
2013-05-21 08:51:00,71.5,66.8,29.70,SE,145,13.0,16.0,85,0.00,,SKC,0.00,VWS V14.01,2013-05-21 13:51:00,
2013-05-21 08:56:00,71.6,66.9,29.70,SE,143,15.0,20.0,85,0.00,,SKC,0.00,VWS V14.01,2013-05-21 13:56:00,
2013-05-21 09:01:00,71.7,66.6,29.70,SSE,153,14.0,20.0,84,0.00,,SKC,0.00,VWS V14.01,2013-05-21 14:01:00,
2013-05-21 09:06:00,71.8,66.7,29.70,SSE,152,13.0,17.0,84,0.00,,SKC,0.00,VWS V14.01,2013-05-21 14:06:00,
2013-05-21 09:11:00,71.9,66.8,29.70,SSW,199,13.0,17.0,84,0.00,,SKC,0.00,VWS V14.01,2013-05-21 14:11:00,
2013-05-21 09:16:00,72.0,66.9,29.70,South,175,9.0,19.0,84,0.00,,SKC,0.00,VWS V14.01,2013-05-21 14:16:00,
2013-05-21 09:21:00,72.1,67.0,29.70,South,191,15.0,15.0,84,0.00,,SKC,0.00,VWS V14.01,2013-05-21 14:21:00,
2013-05-21 09:26:00,72.1,67.0,29.70,SSW,207,16.0,16.0,84,0.00,,SKC,0.00,VWS V14.01,2013-05-21 14:26:00,
2013-05-21 09:31:00,72.2,66.8,29.70,SSW,204,12.0,17.0,83,0.00,,SKC,0.00,VWS V14.01,2013-05-21 14:31:00,
2013-05-21 09:36:00,72.2,66.8,29.71,South,175,10.0,18.0,83,0.00,,SKC,0.00,VWS V14.01,2013-05-21 14:36:00,
2013-05-21 09:41:00,72.3,66.8,29.70,SSE,161,10.0,19.0,83,0.00,,SKC,0.00,VWS V14.01,2013-05-21 14:41:00,
2013-05-21 09:46:00,72.4,66.9,29.71,South,186,11.0,19.0,83,0.00,,SKC,0.00,VWS V14.01,2013-05-21 14:46:00,
2013-05-21 09:51:00,72.4,66.6,29.71,SSE,167,14.0,18.0,82,0.00,,SKC,0.00,VWS V14.01,2013-05-21 14:51:00,
2013-05-21 09:56:00,72.5,66.7,29.71,South,191,25.0,25.0,82,0.00,,SKC,0.00,VWS V14.01,2013-05-21 14:56:00,
2013-05-21 10:01:00,72.6,66.8,29.71,SSW,211,15.0,22.0,82,0.00,,SKC,0.00,VWS V14.01,2013-05-21 15:01:00,
2013-05-21 10:06:00,72.6,66.8,29.71,South,171,12.0,21.0,82,0.00,,SKC,0.00,VWS V14.01,2013-05-21 15:06:00,
2013-05-21 10:11:00,72.7,66.9,29.71,South,186,17.0,17.0,82,0.00,,SKC,0.00,VWS V14.01,2013-05-21 15:11:00,
2013-05-21 10:16:00,72.8,67.0,29.72,SSW,204,16.0,17.0,82,0.00,,SKC,0.00,VWS V14.01,2013-05-21 15:16:00,
2013-05-21 10:21:00,72.8,67.0,29.72,SSW,198,8.0,17.0,82,0.00,,SKC,0.00,VWS V14.01,2013-05-21 15:21:00,
2013-05-21 10:26:00,72.9,67.1,29.72,South,182,13.0,20.0,82,0.00,,SKC,0.00,VWS V14.01,2013-05-21 15:26:00,
2013-05-21 10:31:00,73.0,67.2,29.72,South,179,12.0,18.0,82,0.00,,SKC,0.00,VWS V14.01,2013-05-21 15:31:00,
2013-05-21 10:36:00,73.0,66.8,29.73,SSW,202,19.0,23.0,81,0.00,,SKC,0.00,VWS V14.01,2013-05-21 15:36:00,
2013-05-21 10:41:00,73.1,66.9,29.73,SW,214,11.0,20.0,81,0.00,,SKC,0.00,VWS V14.01,2013-05-21 15:41:00,
2013-05-21 10:46:00,73.3,67.1,29.73,South,179,9.0,18.0,81,0.00,,SKC,0.00,VWS V14.01,2013-05-21 15:46:00,
2013-05-21 10:51:00,73.4,67.2,29.73,South,181,17.0,17.0,81,0.00,,SKC,0.00,VWS V14.01,2013-05-21 15:51:00,
2013-05-21 10:56:00,73.3,67.1,29.73,SSW,198,6.0,13.0,81,0.00,,SKC,0.00,VWS V14.01,2013-05-21 15:56:00,
2013-05-21 11:01:00,73.3,67.1,29.73,SSW,199,9.0,12.0,81,0.00,,SKC,0.00,VWS V14.01,2013-05-21 16:01:00,
2013-05-21 11:06:00,73.4,67.2,29.72,WSW,241,9.0,20.0,81,0.00,,SKC,0.00,VWS V14.01,2013-05-21 16:06:00,
2013-05-21 11:11:00,73.7,67.5,29.73,South,186,14.0,18.0,81,0.00,,SKC,0.00,VWS V14.01,2013-05-21 16:11:00,
2013-05-21 11:16:00,73.9,67.7,29.73,South,182,18.0,20.0,81,0.00,,SKC,0.00,VWS V14.01,2013-05-21 16:16:00,
2013-05-21 11:21:00,74.0,67.4,29.73,SSW,203,15.0,19.0,80,0.00,,SKC,0.00,VWS V14.01,2013-05-21 16:21:00,
2013-05-21 11:26:00,74.2,67.6,29.73,SSW,207,12.0,15.0,80,0.00,,SKC,0.00,VWS V14.01,2013-05-21 16:26:00,
2013-05-21 11:31:00,74.4,67.5,29.74,SW,228,6.0,12.0,79,0.00,,SKC,0.00,VWS V14.01,2013-05-21 16:31:00,
2013-05-21 11:36:00,74.4,67.5,29.74,SW,219,2.0,7.0,79,0.00,,SKC,0.00,VWS V14.01,2013-05-21 16:36:00,
2013-05-21 11:41:00,74.6,67.7,29.74,SSW,209,6.0,14.0,79,0.00,,SKC,0.00,VWS V14.01,2013-05-21 16:41:00,
2013-05-21 11:46:00,74.8,67.9,29.74,SSW,194,8.0,13.0,79,0.00,,SKC,0.00,VWS V14.01,2013-05-21 16:46:00,
2013-05-21 11:51:00,74.6,67.7,29.74,SSW,211,6.0,11.0,79,0.00,,SKC,0.00,VWS V14.01,2013-05-21 16:51:00,
2013-05-21 11:56:00,74.5,67.6,29.74,SW,216,6.0,11.0,79,0.00,,SKC,0.00,VWS V14.01,2013-05-21 16:56:00,
2013-05-21 12:01:00,74.8,67.9,29.74,South,187,7.0,18.0,79,0.00,,SKC,0.00,VWS V14.01,2013-05-21 17:01:00,
2013-05-21 12:06:00,75.2,67.9,29.73,SSW,213,15.0,15.0,78,0.00,,SKC,0.00,VWS V14.01,2013-05-21 17:06:00,
2013-05-21 12:11:00,75.3,68.0,29.73,SSW,192,11.0,13.0,78,0.00,,SKC,0.00,VWS V14.01,2013-05-21 17:11:00,
2013-05-21 12:16:00,75.5,68.2,29.73,SSW,194,14.0,18.0,78,0.00,,SKC,0.00,VWS V14.01,2013-05-21 17:16:00,
2013-05-21 12:21:00,76.0,68.3,29.73,SSW,194,12.0,13.0,77,0.00,,SKC,0.00,VWS V14.01,2013-05-21 17:21:00,
2013-05-21 12:26:00,76.4,68.7,29.73,South,173,9.0,13.0,77,0.00,,SKC,0.00,VWS V14.01,2013-05-21 17:26:00,
2013-05-21 12:31:00,75.8,68.1,29.73,South,190,7.0,15.0,77,0.00,,SKC,0.00,VWS V14.01,2013-05-21 17:31:00,
2013-05-21 12:36:00,75.3,68.0,29.73,SW,225,6.0,13.0,78,0.00,,SKC,0.00,VWS V14.01,2013-05-21 17:36:00,
2013-05-21 12:41:00,75.5,68.2,29.73,South,186,7.0,12.0,78,0.00,,SKC,0.00,VWS V14.01,2013-05-21 17:41:00,
2013-05-21 12:46:00,75.8,68.5,29.73,South,178,7.0,13.0,78,0.00,,SKC,0.00,VWS V14.01,2013-05-21 17:46:00,
2013-05-21 12:51:00,76.0,68.7,29.73,South,188,7.0,11.0,78,0.00,,SKC,0.00,VWS V14.01,2013-05-21 17:51:00,
2013-05-21 12:56:00,76.0,68.3,29.72,SSW,202,11.0,14.0,77,0.00,,SKC,0.00,VWS V14.01,2013-05-21 17:56:00,
2013-05-21 13:01:00,75.5,68.2,29.73,SSW,192,5.0,10.0,78,0.00,,SKC,0.00,VWS V14.01,2013-05-21 18:01:00,
2013-05-21 13:06:00,75.5,68.2,29.72,SW,219,7.0,13.0,78,0.00,,SKC,0.00,VWS V14.01,2013-05-21 18:06:00,
2013-05-21 13:11:00,75.6,68.3,29.72,SSW,194,4.0,12.0,78,0.00,,SKC,0.00,VWS V14.01,2013-05-21 18:11:00,
2013-05-21 13:16:00,75.9,68.6,29.72,SSW,200,6.0,11.0,78,0.00,,SKC,0.00,VWS V14.01,2013-05-21 18:16:00,
2013-05-21 13:21:00,76.3,68.6,29.72,SSW,209,5.0,12.0,77,0.00,,SKC,0.00,VWS V14.01,2013-05-21 18:21:00,
2013-05-21 13:26:00,76.6,68.9,29.72,SSW,202,6.0,13.0,77,0.00,,SKC,0.00,VWS V14.01,2013-05-21 18:26:00,
2013-05-21 13:31:00,76.9,68.8,29.72,SSW,213,3.0,12.0,76,0.00,,SKC,0.00,VWS V14.01,2013-05-21 18:31:00,
2013-05-21 13:36:00,76.9,68.8,29.71,SSW,210,5.0,9.0,76,0.00,,SKC,0.00,VWS V14.01,2013-05-21 18:36:00,
2013-05-21 13:41:00,77.0,69.2,29.72,WSW,238,2.0,10.0,77,0.00,,SKC,0.00,VWS V14.01,2013-05-21 18:41:00,
2013-05-21 13:46:00,77.5,69.3,29.71,SW,218,5.0,8.0,76,0.00,,SKC,0.00,VWS V14.01,2013-05-21 18:46:00,
2013-05-21 13:51:00,78.0,69.4,29.71,SSW,196,6.0,10.0,75,0.00,,SKC,0.00,VWS V14.01,2013-05-21 18:51:00,
2013-05-21 13:56:00,77.9,68.9,29.71,SSW,201,7.0,9.0,74,0.00,,SKC,0.00,VWS V14.01,2013-05-21 18:56:00,
2013-05-21 14:01:00,77.6,68.7,29.71,SSW,210,12.0,12.0,74,0.00,,SKC,0.00,VWS V14.01,2013-05-21 19:01:00,
2013-05-21 14:06:00,77.1,68.6,29.71,South,191,5.0,13.0,75,0.00,,SKC,0.00,VWS V14.01,2013-05-21 19:06:00,
2013-05-21 14:11:00,77.1,69.0,29.71,SSW,205,6.0,11.0,76,0.00,,SKC,0.00,VWS V14.01,2013-05-21 19:11:00,
2013-05-21 14:16:00,77.4,69.2,29.71,SSW,199,5.0,12.0,76,0.00,,SKC,0.00,VWS V14.01,2013-05-21 19:16:00,
2013-05-21 14:21:00,77.7,69.2,29.71,South,184,8.0,13.0,75,0.00,,SKC,0.00,VWS V14.01,2013-05-21 19:21:00,
2013-05-21 14:26:00,78.0,69.8,29.71,SSW,208,9.0,9.0,76,0.00,,SKC,0.00,VWS V14.01,2013-05-21 19:26:00,
2013-05-21 14:31:00,79.0,70.0,29.71,SW,225,4.0,6.0,74,0.00,,SKC,0.00,VWS V14.01,2013-05-21 19:31:00,
2013-05-21 14:36:00,79.1,69.7,29.71,SW,215,4.0,11.0,73,0.00,,SKC,0.00,VWS V14.01,2013-05-21 19:36:00,
2013-05-21 14:41:00,78.5,69.5,29.71,SSW,206,7.0,8.0,74,0.00,,SKC,0.00,VWS V14.01,2013-05-21 19:41:00,
2013-05-21 14:46:00,78.2,69.6,29.70,SW,217,5.0,7.0,75,0.00,,SKC,0.00,VWS V14.01,2013-05-21 19:46:00,
2013-05-21 14:51:00,78.7,69.7,29.71,SSW,211,6.0,7.0,74,0.00,,SKC,0.00,VWS V14.01,2013-05-21 19:51:00,
2013-05-21 14:56:00,78.5,69.5,29.71,SW,221,2.0,5.0,74,0.00,,SKC,0.00,VWS V14.01,2013-05-21 19:56:00,
2013-05-21 15:01:00,78.4,69.4,29.70,SSW,196,5.0,5.0,74,0.00,,SKC,0.00,VWS V14.01,2013-05-21 20:01:00,
2013-05-21 15:06:00,78.2,69.2,29.71,SW,222,4.0,4.0,74,0.00,,SKC,0.00,VWS V14.01,2013-05-21 20:06:00,
2013-05-21 15:12:00,77.8,69.2,29.71,SW,225,2.0,3.0,75,0.00,,SKC,0.00,VWS V14.01,2013-05-21 20:12:00,
2013-05-21 15:17:00,77.4,68.9,29.71,WSW,248,6.0,6.0,75,0.00,,SKC,0.00,VWS V14.01,2013-05-21 20:17:00,
2013-05-21 15:22:00,77.6,69.4,29.70,SW,229,6.0,6.0,76,0.00,,SKC,0.00,VWS V14.01,2013-05-21 20:22:00,
2013-05-21 15:27:00,78.4,69.8,29.70,SW,227,4.0,5.0,75,0.00,,SKC,0.00,VWS V14.01,2013-05-21 20:27:00,
2013-05-21 15:32:00,79.2,70.6,29.70,SSW,212,3.0,4.0,75,0.00,,SKC,0.00,VWS V14.01,2013-05-21 20:32:00,
2013-05-21 15:37:00,79.8,70.8,29.70,SW,229,5.0,5.0,74,0.00,,SKC,0.00,VWS V14.01,2013-05-21 20:37:00,
2013-05-21 15:42:00,80.2,69.9,29.69,South,178,10.0,11.0,71,0.00,,SKC,0.00,VWS V14.01,2013-05-21 20:42:00,
2013-05-21 15:47:00,80.1,69.9,29.69,SSW,202,6.0,9.0,71,0.00,,SKC,0.00,VWS V14.01,2013-05-21 20:47:00,
2013-05-21 15:52:00,79.7,69.5,29.69,SSW,211,4.0,9.0,71,0.00,,SKC,0.00,VWS V14.01,2013-05-21 20:52:00,
2013-05-21 15:57:00,79.4,69.2,29.69,SSW,194,10.0,15.0,71,0.00,,SKC,0.00,VWS V14.01,2013-05-21 20:57:00,
2013-05-21 16:02:00,79.4,70.0,29.69,SSW,197,5.0,10.0,73,0.00,,SKC,0.00,VWS V14.01,2013-05-21 21:02:00,
2013-05-21 16:07:00,80.0,70.6,29.68,SW,232,7.0,7.0,73,0.00,,SKC,0.00,VWS V14.01,2013-05-21 21:07:00,
2013-05-21 16:12:00,80.8,70.9,29.68,WSW,239,2.0,5.0,72,0.00,,SKC,0.00,VWS V14.01,2013-05-21 21:12:00,
2013-05-21 16:17:00,81.3,70.6,29.68,South,188,12.0,13.0,70,0.00,,SKC,0.00,VWS V14.01,2013-05-21 21:17:00,
2013-05-21 16:22:00,80.5,70.2,29.68,South,182,15.0,15.0,71,0.00,,SKC,0.00,VWS V14.01,2013-05-21 21:22:00,
2013-05-21 16:27:00,79.9,69.7,29.67,SSE,165,9.0,12.0,71,0.00,,SKC,0.00,VWS V14.01,2013-05-21 21:27:00,
2013-05-21 16:32:00,79.6,69.8,29.67,South,188,9.0,12.0,72,0.00,,SKC,0.00,VWS V14.01,2013-05-21 21:32:00,
2013-05-21 16:37:00,80.6,70.3,29.67,SSW,210,7.0,11.0,71,0.00,,SKC,0.00,VWS V14.01,2013-05-21 21:37:00,
2013-05-21 16:42:00,80.8,70.1,29.67,SSW,210,7.0,7.0,70,0.00,,SKC,0.00,VWS V14.01,2013-05-21 21:42:00,
2013-05-21 16:47:00,81.4,70.3,29.66,SSW,203,3.0,4.0,69,0.00,,SKC,0.00,VWS V14.01,2013-05-21 21:47:00,
2013-05-21 16:52:00,81.4,70.3,29.66,South,180,11.0,12.0,69,0.00,,SKC,0.00,VWS V14.01,2013-05-21 21:52:00,
2013-05-21 16:57:00,81.0,70.3,29.66,South,172,5.0,9.0,70,0.00,,SKC,0.00,VWS V14.01,2013-05-21 21:57:00,
2013-05-21 17:02:00,81.3,70.2,29.66,SSW,202,0.0,5.0,69,0.00,,SKC,0.00,VWS V14.01,2013-05-21 22:02:00,
2013-05-21 17:07:00,80.6,69.9,29.66,SW,222,6.0,11.0,70,0.00,,SKC,0.00,VWS V14.01,2013-05-21 22:07:00,
2013-05-21 17:12:00,81.1,69.6,29.66,SSW,211,5.0,9.0,68,0.00,,SKC,0.00,VWS V14.01,2013-05-21 22:12:00,
2013-05-21 17:17:00,81.5,69.9,29.65,SSW,204,7.0,7.0,68,0.00,,SKC,0.00,VWS V14.01,2013-05-21 22:17:00,
2013-05-21 17:22:00,81.5,69.9,29.65,SSE,165,6.0,11.0,68,0.00,,SKC,0.00,VWS V14.01,2013-05-21 22:22:00,
2013-05-21 17:27:00,81.5,69.9,29.65,SSW,192,5.0,11.0,68,0.00,,SKC,0.00,VWS V14.01,2013-05-21 22:27:00,
2013-05-21 17:32:00,81.7,70.1,29.65,SSW,206,5.0,5.0,68,0.00,,SKC,0.00,VWS V14.01,2013-05-21 22:32:00,
2013-05-21 17:37:00,81.9,69.9,29.65,SSE,167,6.0,7.0,67,0.00,,SKC,0.00,VWS V14.01,2013-05-21 22:37:00,
2013-05-21 17:42:00,81.5,69.5,29.65,SSW,203,9.0,10.0,67,0.00,,SKC,0.00,VWS V14.01,2013-05-21 22:42:00,
2013-05-21 17:47:00,81.7,70.1,29.65,SSW,200,6.0,6.0,68,0.00,,SKC,0.00,VWS V14.01,2013-05-21 22:47:00,
2013-05-21 17:52:00,81.5,69.1,29.65,SSW,193,7.0,7.0,66,0.00,,SKC,0.00,VWS V14.01,2013-05-21 22:52:00,
2013-05-21 17:57:00,81.8,69.8,29.65,South,175,1.0,3.0,67,0.00,,SKC,0.00,VWS V14.01,2013-05-21 22:57:00,
2013-05-21 18:02:00,82.2,69.7,29.65,SSW,200,4.0,5.0,66,0.00,,SKC,0.00,VWS V14.01,2013-05-21 23:02:00,
2013-05-21 18:07:00,82.1,69.6,29.65,SSW,192,7.0,7.0,66,0.00,,SKC,0.00,VWS V14.01,2013-05-21 23:07:00,
2013-05-21 18:12:00,82.0,69.5,29.65,SSW,194,6.0,7.0,66,0.00,,SKC,0.00,VWS V14.01,2013-05-21 23:12:00,
2013-05-21 18:17:00,81.8,69.3,29.65,South,182,6.0,8.0,66,0.00,,SKC,0.00,VWS V14.01,2013-05-21 23:17:00,
2013-05-21 18:22:00,81.8,69.3,29.65,SSW,198,4.0,7.0,66,0.00,,SKC,0.00,VWS V14.01,2013-05-21 23:22:00,
2013-05-21 18:27:00,81.8,69.3,29.65,South,189,6.0,6.0,66,0.00,,SKC,0.00,VWS V14.01,2013-05-21 23:27:00,
2013-05-21 18:32:00,81.9,69.0,29.65,SSW,199,3.0,7.0,65,0.00,,SKC,0.00,VWS V14.01,2013-05-21 23:32:00,
2013-05-21 18:37:00,82.0,69.1,29.66,SSW,209,2.0,3.0,65,0.00,,SKC,0.00,VWS V14.01,2013-05-21 23:37:00,
2013-05-21 18:42:00,81.7,68.8,29.66,SSW,195,5.0,5.0,65,0.00,,SKC,0.00,VWS V14.01,2013-05-21 23:42:00,
2013-05-21 18:47:00,81.5,69.1,29.66,SSW,198,0.0,0.0,66,0.00,,SKC,0.00,VWS V14.01,2013-05-21 23:47:00,
2013-05-21 18:52:00,81.3,68.4,29.66,SSW,198,2.0,3.0,65,0.00,,SKC,0.00,VWS V14.01,2013-05-21 23:52:00,
2013-05-21 18:57:00,81.2,69.2,29.67,SSW,199,0.0,1.0,67,0.00,,SKC,0.00,VWS V14.01,2013-05-21 23:57:00,
2013-05-21 19:02:00,81.3,69.3,29.67,NNE,15,2.0,5.0,67,0.00,,SKC,0.00,VWS V14.01,2013-05-22 00:02:00,
2013-05-21 19:07:00,80.5,65.3,29.67,North,355,6.0,9.0,60,0.00,,SKC,0.00,VWS V14.01,2013-05-22 00:07:00,
2013-05-21 19:12:00,79.5,64.9,29.68,NNE,23,7.0,10.0,61,0.00,,SKC,0.00,VWS V14.01,2013-05-22 00:12:00,
2013-05-21 19:17:00,78.7,64.6,29.68,North,5,6.0,15.0,62,0.00,,SKC,0.00,VWS V14.01,2013-05-22 00:17:00,
2013-05-21 19:22:00,77.8,63.8,29.68,NNW,329,7.0,12.0,62,0.00,,SKC,0.00,VWS V14.01,2013-05-22 00:22:00,
2013-05-21 19:27:00,77.2,63.6,29.68,North,360,9.0,9.0,63,0.00,,SKC,0.00,VWS V14.01,2013-05-22 00:27:00,
2013-05-21 19:32:00,76.8,63.7,29.69,North,5,10.0,11.0,64,0.00,,SKC,0.00,VWS V14.01,2013-05-22 00:32:00,
2013-05-21 19:37:00,76.4,63.3,29.69,NNE,13,10.0,11.0,64,0.00,,SKC,0.00,VWS V14.01,2013-05-22 00:37:00,
2013-05-21 19:42:00,76.0,63.4,29.69,North,11,5.0,11.0,65,0.00,,SKC,0.00,VWS V14.01,2013-05-22 00:42:00,
2013-05-21 19:47:00,75.4,62.8,29.70,NNE,20,8.0,13.0,65,0.00,,SKC,0.00,VWS V14.01,2013-05-22 00:47:00,
2013-05-21 19:52:00,74.8,62.3,29.70,North,360,11.0,11.0,65,0.00,,SKC,0.00,VWS V14.01,2013-05-22 00:52:00,
2013-05-21 19:57:00,74.2,61.7,29.71,NNE,24,7.0,14.0,65,0.00,,SKC,0.00,VWS V14.01,2013-05-22 00:57:00,
2013-05-21 20:02:00,73.7,61.2,29.71,NNE,22,12.0,15.0,65,0.00,,SKC,0.00,VWS V14.01,2013-05-22 01:02:00,
2013-05-21 20:07:00,73.3,60.8,29.72,NNE,22,10.0,10.0,65,0.00,,SKC,0.00,VWS V14.01,2013-05-22 01:07:00,
2013-05-21 20:12:00,72.9,60.5,29.72,NNE,15,6.0,13.0,65,0.00,,SKC,0.00,VWS V14.01,2013-05-22 01:12:00,
2013-05-21 20:17:00,72.5,60.5,29.73,North,9,10.0,10.0,66,0.00,,SKC,0.00,VWS V14.01,2013-05-22 01:17:00,
2013-05-21 20:22:00,72.2,60.2,29.73,North,360,5.0,15.0,66,0.00,,SKC,0.00,VWS V14.01,2013-05-22 01:22:00,
2013-05-21 20:27:00,71.9,59.9,29.73,NNE,13,10.0,12.0,66,0.00,,SKC,0.00,VWS V14.01,2013-05-22 01:27:00,
2013-05-21 20:32:00,71.7,59.3,29.74,NNE,14,12.0,12.0,65,0.00,,SKC,0.00,VWS V14.01,2013-05-22 01:32:00,
2013-05-21 20:37:00,71.5,59.1,29.74,NW,325,7.0,11.0,65,0.00,,SKC,0.00,VWS V14.01,2013-05-22 01:37:00,
2013-05-21 20:42:00,71.3,58.9,29.74,NE,44,10.0,13.0,65,0.00,,SKC,0.00,VWS V14.01,2013-05-22 01:42:00,
2013-05-21 20:47:00,71.2,58.8,29.74,NNE,13,10.0,10.0,65,0.00,,SKC,0.00,VWS V14.01,2013-05-22 01:47:00,
2013-05-21 20:52:00,71.0,58.7,29.74,NNE,19,7.0,13.0,65,0.00,,SKC,0.00,VWS V14.01,2013-05-22 01:52:00,
2013-05-21 20:57:00,70.8,58.5,29.75,North,355,6.0,10.0,65,0.00,,SKC,0.00,VWS V14.01,2013-05-22 01:57:00,
2013-05-21 21:02:00,70.7,58.4,29.75,NNE,18,2.0,5.0,65,0.00,,SKC,0.00,VWS V14.01,2013-05-22 02:02:00,
2013-05-21 21:07:00,70.5,58.2,29.75,North,360,6.0,11.0,65,0.00,,SKC,0.00,VWS V14.01,2013-05-22 02:07:00,
2013-05-21 21:12:00,70.3,58.0,29.75,NNE,23,4.0,8.0,65,0.00,,SKC,0.00,VWS V14.01,2013-05-22 02:12:00,
2013-05-21 21:17:00,70.1,58.2,29.75,NNE,28,9.0,10.0,66,0.00,,SKC,0.00,VWS V14.01,2013-05-22 02:17:00,
2013-05-21 21:22:00,69.9,58.0,29.76,NNE,32,6.0,11.0,66,0.00,,SKC,0.00,VWS V14.01,2013-05-22 02:22:00,
2013-05-21 21:27:00,69.7,57.8,29.76,NNE,24,5.0,5.0,66,0.00,,SKC,0.00,VWS V14.01,2013-05-22 02:27:00,
2013-05-21 21:32:00,69.5,57.7,29.76,NNE,22,4.0,6.0,66,0.00,,SKC,0.00,VWS V14.01,2013-05-22 02:32:00,
2013-05-21 21:37:00,69.2,57.4,29.76,NNE,26,4.0,10.0,66,0.00,,SKC,0.00,VWS V14.01,2013-05-22 02:37:00,
2013-05-21 21:42:00,69.1,57.3,29.77,NNE,22,5.0,10.0,66,0.00,,SKC,0.00,VWS V14.01,2013-05-22 02:42:00,
2013-05-21 21:47:00,69.0,57.2,29.77,NNE,25,10.0,10.0,66,0.00,,SKC,0.00,VWS V14.01,2013-05-22 02:47:00,
2013-05-21 21:52:00,68.9,56.7,29.77,NNE,12,4.0,7.0,65,0.00,,SKC,0.00,VWS V14.01,2013-05-22 02:52:00,
2013-05-21 21:57:00,68.7,56.5,29.77,North,9,4.0,7.0,65,0.00,,SKC,0.00,VWS V14.01,2013-05-22 02:57:00,
2013-05-21 22:02:00,68.5,56.3,29.77,North,9,5.0,7.0,65,0.00,,SKC,0.00,VWS V14.01,2013-05-22 03:02:00,
2013-05-21 22:07:00,68.3,56.5,29.78,NNE,15,4.0,4.0,66,0.00,,SKC,0.00,VWS V14.01,2013-05-22 03:07:00,
2013-05-21 22:12:00,68.2,56.4,29.78,NNE,23,4.0,5.0,66,0.00,,SKC,0.00,VWS V14.01,2013-05-22 03:12:00,
2013-05-21 22:17:00,68.2,56.4,29.78,NNE,29,2.0,6.0,66,0.00,,SKC,0.00,VWS V14.01,2013-05-22 03:17:00,
2013-05-21 22:22:00,68.3,56.5,29.78,North,11,5.0,5.0,66,0.00,,SKC,0.00,VWS V14.01,2013-05-22 03:22:00,
2013-05-21 22:27:00,68.3,56.9,29.78,North,5,4.0,5.0,67,0.00,,SKC,0.00,VWS V14.01,2013-05-22 03:27:00,
2013-05-21 22:32:00,68.4,56.6,29.78,NE,35,0.0,3.0,66,0.00,,SKC,0.00,VWS V14.01,2013-05-22 03:32:00,
2013-05-21 22:37:00,68.4,56.6,29.79,NE,48,6.0,7.0,66,0.00,,SKC,0.00,VWS V14.01,2013-05-22 03:37:00,
2013-05-21 22:42:00,68.4,56.6,29.79,NE,36,1.0,4.0,66,0.00,,SKC,0.00,VWS V14.01,2013-05-22 03:42:00,
2013-05-21 22:47:00,68.5,56.7,29.79,ENE,57,6.0,10.0,66,0.00,,SKC,0.00,VWS V14.01,2013-05-22 03:47:00,
2013-05-21 22:52:00,68.5,56.7,29.79,North,360,7.0,7.0,66,0.00,,SKC,0.00,VWS V14.01,2013-05-22 03:52:00,
2013-05-21 22:57:00,68.6,56.4,29.79,NNE,24,4.0,9.0,65,0.00,,SKC,0.00,VWS V14.01,2013-05-22 03:57:00,
2013-05-21 23:01:00,68.6,56.4,29.79,NNE,17,8.0,9.0,65,0.00,,SKC,0.00,VWS V14.01,2013-05-22 04:01:00,
2013-05-21 23:02:00,68.6,56.4,29.79,NNE,21,2.0,4.0,65,0.00,,SKC,0.00,VWS V14.01,2013-05-22 04:02:00,
2013-05-21 23:07:00,68.7,56.5,29.80,NNE,22,6.0,6.0,65,0.00,,SKC,0.00,VWS V14.01,2013-05-22 04:07:00,
2013-05-21 23:12:00,68.9,56.7,29.80,NNE,28,6.0,6.0,65,0.00,,SKC,0.00,VWS V14.01,2013-05-22 04:12:00,
2013-05-21 23:17:00,69.0,56.3,29.81,NNE,13,4.0,7.0,64,0.00,,SKC,0.00,VWS V14.01,2013-05-22 04:17:00,
2013-05-21 23:22:00,69.0,55.9,29.80,NE,46,3.0,9.0,63,0.00,,SKC,0.00,VWS V14.01,2013-05-22 04:22:00,
2013-05-21 23:27:00,69.0,55.9,29.81,North,355,4.0,6.0,63,0.00,,SKC,0.00,VWS V14.01,2013-05-22 04:27:00,
2013-05-21 23:32:00,68.9,56.2,29.81,NE,34,4.0,5.0,64,0.00,,SKC,0.00,VWS V14.01,2013-05-22 04:32:00,
2013-05-21 23:37:00,68.8,56.6,29.81,NNE,32,1.0,3.0,65,0.00,,SKC,0.00,VWS V14.01,2013-05-22 04:37:00,
2013-05-21 23:42:00,68.6,56.4,29.82,NNE,32,3.0,3.0,65,0.00,,SKC,0.00,VWS V14.01,2013-05-22 04:42:00,
2013-05-21 23:47:00,68.3,56.1,29.82,NE,48,1.0,3.0,65,0.00,,SKC,0.00,VWS V14.01,2013-05-22 04:47:00,
2013-05-21 23:52:00,68.0,55.8,29.82,NNE,17,2.0,3.0,65,0.00,,SKC,0.00,VWS V14.01,2013-05-22 04:52:00,
2013-05-21 23:57:00,67.8,55.6,29.82,NE,54,3.0,6.0,65,0.00,,SKC,0.00,VWS V14.01,2013-05-22 04:57:00,